RH
100 98 89 58 72 82 100 89 82 61 57 52 71 66 61 60 45 40 34 38 34 31 35 48 74 89 76 52 48 40 37 42 40 49 57 60 48 29 29 27 21 17 35 24 55 100 100 100 100
84 98 89 79 47 71 94 96 77 73 65 53 74 75 72 63 49 41 38 35 33 29 28 36 63 75 65 56 42 41 39 39 37 48 65 58 40 22 18 21 31 22 19 33 27 69 100 100 100
65 72 75 82 76 50 81 84 78 68 76 56 57 90 71 68 58 46 42 30 32 27 29 31 42 54 53 50 39 48 44 38 32 49 61 53 37 18 15 21 56 46 32 38 39 29 75 100 100
52 60 52 46 66 89 100 69 73 71 76 67 67 98 81 73 68 58 50 39 32 28 28 32 40 46 46 59 51 52 47 41 38 44 47 32 17 17 17 16 33 69 52 38 42 44 30 35 70
36 46 42 44 54 77 100 69 53 68 71 67 68 93 83 61 79 71 55 44 35 31 29 25 42 46 44 54 53 52 46 55 72 70 38 19 18 18 18 18 31 83 80 67 48 55 77 46 36
32 37 39 33 45 63 88 70 41 51 65 61 56 77 84 84 77 82 58 46 36 32 30 29 31 34 35 36 43 46 45 64 75 61 36 21 20 17 21 20 18 26 24 32 26 31 45 57 59
32 28 31 38 45 48 61 66 51 39 50 54 51 59 83 71 72 78 66 56 44 34 30 30 27 26 26 32 36 35 38 41 48 45 33 24 22 21 18 17 18 19 19 18 20 18 18 20 29
30 33 28 28 29 41 52 50 58 50 47 53 45 44 60 64 63 68 65 54 49 39 31 29 30 26 29 27 28 29 31 36 41 41 31 27 27 28 25 19 18 20 19 18 17 21 21 18 46
25 28 28 25 25 36 40 38 51 54 55 54 42 42 42 45 55 50 54 37 33 41 36 29 30 30 31 31 27 23 27 30 32 39 31 30 27 25 28 26 25 23 23 22 21 19 17 20 25
9 20 31 33 29 33 37 41 44 51 62 63 70 43 40 37 44 47 47 44 36 30 29 31 32 35 34 32 29 24 22 25 28 33 30 32 28 23 23 26 28 30 30 26 26 23 20 24 28
8 18 32 30 31 34 39 30 37 47 73 75 71 64 58 40 33 35 40 41 42 29 24 29 28 27 27 30 28 26 22 18 22 28 28 30 27 29 28 30 34 34 33 31 30 28 21 18 25
10 14 22 30 33 32 32 26 30 44 63 96 77 59 58 43 30 29 32 35 40 41 26 22 25 24 28 30 27 25 23 20 17 24 27 30 31 31 33 35 34 36 36 33 32 31 24 20 14
9 10 16 33 34 34 31 29 34 40 44 54 53 44 42 61 37 29 26 30 34 42 41 30 28 24 28 28 31 25 26 21 22 25 29 35 34 32 41 41 34 34 42 37 34 34 28 22 18
10 10 17 33 38 34 31 33 34 41 47 45 58 46 34 46 40 33 29 27 27 32 36 34 31 26 29 26 32 30 28 25 24 28 29 34 34 33 37 41 35 30 36 41 38 37 32 28 21
13 17 20 31 44 31 29 31 50 49 62 43 40 44 52 55 53 48 35 28 33 43 44 34 37 32 31 30 30 34 31 30 30 31 33 30 32 31 36 42 38 40 31 37 43 39 38 32 24
16 21 19 25 35 30 26 30 37 47 51 44 41 61 54 68 53 51 46 37 34 43 51 46 40 39 33 35 30 40 38 33 33 34 38 40 44 36 35 45 49 49 42 37 46 44 42 37 30
19 16 20 25 38 32 25 26 27 65 83 46 38 60 68 76 70 52 40 39 42 50 64 55 41 46 35 34 33 38 44 39 34 35 40 47 53 42 45 52 57 52 47 39 48 48 47 42 38
15 16 34 30 42 33 26 26 28 79 85 77 37 36 44 87 95 83 58 54 58 75 76 60 53 50 45 36 35 41 46 42 44 38 40 48 61 51 54 58 66 64 54 39 40 49 51 50 41
15 27 36 28 49 43 29 28 29 44 80 90 87 39 44 78 98 98 92 100 95 100 100 96 73 56 49 43 35 37 47 44 50 49 46 50 60 65 65 65 74 77 71 56 45 41 44 47 48
17 26 52 44 60 60 31 29 30 29 72 98 99 61 45 60 95 100 100 100 100 100 100 100 100 91 62 46 43 46 50 53 49 47 51 56 61 66 67 82 82 93 89 75 57 46 42 46 49
29 35 54 51 76 86 61 32 33 34 67 98 100 86 59 48 68 82 99 100 100 100 100 100 100 100 89 52 53 54 63 61 52 55 60 73 78 81 81 92 99 99 100 92 74 57 47 41 45
38 58 64 62 72 90 72 39 33 30 47 95 100 100 95 59 54 53 74 100 100 100 100 100 100 100 100 92 70 73 62 70 82 83 82 79 88 96 97 99 100 100 100 99 82 68 51 45 41
35 48 81 84 83 85 82 35 40 34 39 45 91 97 96 82 51 74 96 93 100 100 100 100 100 100 100 100 99 90 98 99 93 100 100 100 100 100 99 100 99 100 100 99 83 76 61 50 43
31 44 70 88 95 96 82 42 42 36 37 38 68 66 82 96 89 69 94 98 100 100 100 100 100 100 100 100 100 95 99 97 93 100 100 100 100 100 97 92 96 100 96 88 87 82 70 52 49
27 54 66 76 70 74 67 62 47 43 41 46 39 52 81 100 97 82 64 78 94 98 100 100 100 100 100 100 100 100 94 99 89 92 96 100 100 100 92 91 94 99 100 98 98 80 65 58 55
62 70 100 84 68 64 51 38 47 55 43 46 44 41 70 84 82 82 94 74 69 82 93 100 100 100 100 100 100 100 93 90 91 98 96 98 91 94 95 93 94 97 99 97 89 77 69 65 63
37 39 50 48 63 71 80 59 47 36 37 32 43 36 60 56 77 63 77 77 63 73 72 67 93 100 100 100 100 100 100 100 100 100 95 100 100 98 99 98 96 97 100 92 87 83 74 69 67
83 73 62 57 54 48 57 65 57 52 52 55 57 56 61 95 78 93 89 79 70 69 72 70 67 77 97 100 100 100 100 100 100 100 100 100 100 100 99 100 98 100 100 100 98 93 83 78 74
100 96 94 93 94 72 64 59 68 75 77 65 71 77 66 87 93 98 89 80 74 60 46 51 54 54 48 55 83 100 100 100 100 100 100 100 100 100 100 100 100 100 100 100 100 100 93 89 84
100 100 90 90 88 99 97 94 90 69 74 75 51 60 84 73 72 76 98 100 100 97 81 54 46 46 41 37 37 45 77 98 100 100 100 100 100 100 100 100 100 100 100 100 100 100 100 92 91
Wind_Speed
106 101 95 101 95 83 83 88 86 82 74 64 59 57 54 53 51 42 34 31 28 25 25 27 25 25 24 23 23 23 24 21 17 15 18 19 16 20 18 19 20 35 35 43 45 49 53 47 44
113 105 100 96 97 88 82 87 84 82 78 70 62 60 57 55 52 48 43 36 31 27 25 25 28 28 26 24 23 22 22 19 18 16 20 18 19 18 17 19 21 24 36 40 47 51 55 55 50
121 116 108 101 94 92 89 89 83 82 76 76 68 63 61 57 56 52 49 39 33 26 23 25 28 30 26 24 23 24 24 22 21 19 18 16 19 18 16 18 23 22 29 41 45 52 56 55 58
127 123 118 110 95 91 93 98 86 79 78 76 69 67 64 60 56 51 49 48 43 36 27 23 26 29 29 25 24 24 24 22 22 22 18 18 18 15 18 17 11 18 28 28 40 45 53 61 63
134 129 131 115 100 94 100 101 94 83 80 80 73 68 66 64 62 57 51 46 43 39 32 27 23 27 29 27 26 25 25 20 16 17 15 17 14 12 12 11 14 19 25 31 33 42 45 54 59
137 134 130 116 111 101 103 102 97 89 83 81 77 71 68 68 63 58 54 47 47 42 36 35 29 26 24 29 30 28 26 19 20 21 16 14 14 12 15 15 14 17 18 22 26 35 41 41 42
139 141 129 114 112 108 109 103 93 90 90 84 74 76 70 68 69 62 56 52 49 46 42 37 36 32 28 29 30 31 28 25 25 23 20 16 14 13 13 14 14 15 18 20 23 23 27 38 42
140 137 130 127 119 112 115 105 98 91 88 88 83 74 76 71 70 67 61 55 54 50 46 42 38 35 33 33 30 30 30 28 25 26 23 18 16 15 15 14 15 18 19 20 21 26 28 32 38
140 139 128 124 121 110 117 115 104 96 88 89 84 84 79 75 71 68 63 54 54 56 50 46 42 39 39 38 30 28 31 29 26 28 25 22 20 16 17 17 19 20 23 24 25 27 31 32 35
144 140 126 118 113 108 113 112 109 100 92 89 84 80 81 80 76 69 65 61 54 52 50 48 45 44 45 42 40 32 28 30 29 30 28 23 23 18 15 17 21 24 25 28 30 33 36 37 36
137 136 124 120 112 106 112 117 108 105 100 94 89 86 86 85 80 74 67 62 62 56 50 48 49 48 48 45 44 36 30 32 32 30 26 25 23 23 22 23 25 26 28 30 33 36 38 39 40
133 131 126 119 116 109 113 115 108 104 100 101 95 92 85 88 82 79 71 67 64 58 57 51 46 45 45 44 43 41 33 36 33 32 28 26 26 25 23 25 29 30 29 31 33 37 37 39 39
124 125 124 119 116 111 114 106 103 105 104 99 95 90 86 86 83 81 74 69 69 65 61 57 54 51 47 45 46 43 38 37 37 38 34 31 29 26 26 29 30 29 31 33 35 35 38 37 40
112 126 120 114 109 111 111 102 101 101 101 100 93 89 89 87 82 79 76 72 71 68 65 57 54 53 48 46 46 46 43 41 40 38 36 34 32 30 30 32 32 31 32 34 37 37 37 38 39
112 122 118 117 109 111 110 101 92 96 90 98 96 92 90 90 87 84 78 74 68 67 64 60 56 53 51 49 48 49 47 47 42 42 41 41 39 35 34 34 33 34 33 34 37 38 37 37 38
105 119 116 119 112 113 113 99 97 89 88 88 91 92 89 89 88 85 82 77 71 70 66 62 61 58 57 53 51 52 50 52 49 44 43 43 43 42 38 36 35 36 38 36 38 39 37 37 38
106 117 116 116 110 110 111 103 93 77 70 90 89 91 89 87 86 85 85 81 75 73 69 67 66 63 62 57 56 55 53 54 54 51 47 47 46 43 40 39 38 38 41 38 39 40 38 36 38
86 114 112 111 108 110 107 103 94 71 72 76 89 89 90 88 87 86 84 84 78 77 74 73 71 68 65 63 60 58 56 57 56 55 52 51 48 45 44 43 43 43 42 41 40 41 41 38 38
77 99 109 111 106 101 102 100 94 81 74 76 77 87 88 88 85 86 84 83 80 78 77 77 73 70 67 66 63 64 61 59 59 57 57 56 52 50 49 48 47 47 46 44 42 43 43 43 42
75 97 106 110 104 101 110 97 90 88 77 75 75 80 87 87 85 84 83 84 83 79 80 78 76 76 73 70 68 67 63 61 62 59 58 56 56 56 55 52 52 50 50 49 46 45 46 46 46
76 90 101 106 100 102 99 97 91 89 80 75 73 77 81 85 84 82 79 81 81 83 82 80 79 80 77 74 71 71 66 64 64 61 60 59 58 59 57 55 55 54 54 53 52 49 48 49 48
70 87 100 102 101 101 102 96 94 91 84 77 71 71 74 81 79 80 80 79 79 81 82 80 79 81 78 76 73 72 68 65 64 64 63 63 62 59 59 58 57 57 56 56 55 54 51 51 52
64 79 92 99 102 103 104 102 94 92 89 83 73 69 69 71 80 75 73 76 78 74 75 77 78 80 79 76 75 72 69 66 66 66 66 66 65 63 60 60 61 59 57 58 58 58 55 49 52
54 65 79 91 100 99 102 97 94 91 87 83 76 72 71 69 71 78 75 72 72 74 70 70 75 76 76 76 72 73 72 71 69 66 66 67 66 64 62 61 62 62 60 60 59 56 53 51 51
43 63 75 85 98 103 104 101 92 91 87 83 81 73 72 69 73 72 78 81 74 73 74 70 69 71 73 76 76 74 74 73 73 71 69 69 69 66 64 64 64 63 63 61 57 57 54 53 53
45 54 63 70 81 95 105 102 90 89 89 82 81 76 76 68 68 72 70 75 81 79 76 74 68 67 69 66 72 74 75 76 74 73 73 71 70 67 67 67 66 64 64 63 60 59 57 56 56
11 18 56 63 73 87 94 95 88 88 89 82 79 78 69 69 66 74 74 70 74 78 82 82 79 74 69 68 66 66 69 71 72 73 72 69 70 69 69 69 69 68 67 66 64 63 63 62 61
4 7 15 22 37 69 83 89 86 87 88 83 79 74 71 63 71 66 68 69 72 75 78 78 80 81 80 75 70 67 66 68 69 68 71 70 72 71 72 73 72 70 68 68 67 67 65 64 64
33 20 6 19 21 30 36 65 77 86 89 88 85 80 79 78 70 62 60 67 73 76 78 76 78 78 78 81 78 76 71 66 66 65 66 66 67 68 70 70 70 69 69 68 66 66 67 66 67
28 33 32 9 18 21 26 32 54 70 84 85 88 86 84 85 84 80 74 72 68 67 67 72 76 75 77 79 80 79 78 75 71 69 68 66 65 66 68 69 69 70 70 70 70 70 70 70 71
Wind_Direction
238 234 235 235 236 233 236 238 235 237 241 238 236 238 235 235 235 239 239 241 243 244 248 251 250 244 251 259 255 260 264 272 270 265 278 281 276 285 280 283 262 237 237 224 226 223 222 223 226
237 235 232 233 235 233 235 236 236 237 238 236 233 233 233 230 235 233 239 240 241 242 247 253 251 248 256 253 254 258 266 271 264 260 279 278 283 288 286 280 271 256 246 234 229 229 228 228 229
236 237 233 231 231 232 234 234 234 235 233 237 236 230 232 230 237 234 237 238 239 240 247 252 256 252 249 249 250 260 266 269 269 269 278 282 290 296 302 283 258 268 256 243 234 235 234 237 239
237 235 235 235 229 228 231 234 233 232 232 231 230 229 226 229 234 233 235 237 243 246 246 245 254 255 247 245 248 256 264 268 272 273 275 286 283 285 291 278 258 261 261 260 251 246 242 243 245
237 237 235 233 230 229 233 234 233 231 230 229 228 228 226 231 231 232 233 232 235 237 240 246 252 253 250 249 248 257 266 264 264 262 270 290 287 290 298 276 265 262 263 265 264 254 253 251 251
235 234 233 234 233 229 232 234 232 230 228 230 228 228 227 227 230 231 228 228 230 235 234 241 247 256 262 256 255 259 261 255 256 265 273 286 279 284 291 279 271 256 261 260 269 263 257 257 262
233 234 232 230 230 230 233 233 232 230 229 228 224 226 225 227 228 229 228 230 231 233 234 240 243 250 262 261 259 258 260 257 265 262 261 270 281 289 301 290 288 294 281 275 280 283 279 265 263
230 232 230 231 232 230 231 233 231 228 228 227 227 227 227 228 230 229 231 231 231 232 235 238 240 245 258 268 264 262 261 260 257 255 259 261 272 283 295 299 298 298 304 308 295 289 292 275 268
227 230 230 230 230 229 231 231 230 227 226 227 226 226 227 228 228 229 227 227 230 233 235 234 237 243 253 260 265 268 260 257 251 255 262 260 267 271 276 293 302 298 304 305 308 303 300 294 274
224 226 225 226 221 222 228 228 229 227 227 228 226 225 228 227 227 227 226 226 232 231 231 233 237 243 251 256 263 259 257 254 247 251 260 258 265 271 276 289 298 293 296 300 304 304 308 304 294
220 219 217 219 217 213 220 228 227 227 224 222 223 222 225 224 224 227 227 226 230 232 233 234 237 243 249 250 259 252 249 247 246 246 248 249 263 274 282 287 293 296 292 294 302 306 308 307 299
214 213 215 215 214 212 221 227 226 226 223 222 224 225 225 224 226 226 227 228 228 233 234 234 237 243 246 247 247 248 240 241 244 245 245 253 261 271 281 286 290 291 293 293 297 303 307 308 303
210 212 212 209 208 210 219 222 222 225 225 225 225 229 229 226 227 228 229 228 230 235 235 238 239 242 241 245 245 244 238 237 241 243 245 251 260 269 278 286 294 292 291 291 296 302 305 312 312
208 210 207 203 203 209 216 215 218 221 223 224 224 227 231 229 226 228 230 231 233 235 237 237 237 237 237 243 242 242 240 237 240 243 248 250 256 262 274 285 291 292 289 289 292 300 303 311 315
204 204 199 202 201 209 212 210 212 213 218 223 225 226 226 228 228 230 228 232 233 237 231 233 233 235 237 240 242 241 241 239 237 241 247 253 259 260 268 279 287 295 293 288 291 300 304 309 316
202 201 198 203 203 209 212 208 210 213 214 222 223 223 223 226 227 229 231 233 231 231 232 232 238 239 238 239 242 241 243 243 240 241 248 255 261 261 264 272 282 292 297 290 291 296 302 308 314
199 201 197 200 201 206 212 209 209 210 209 219 221 220 222 223 225 227 231 231 232 232 229 232 239 235 236 245 241 238 240 244 243 245 248 256 260 262 265 271 280 290 294 290 288 293 299 304 310
201 199 196 197 200 206 210 209 208 205 208 215 219 220 222 222 224 225 228 231 228 226 228 232 231 233 235 239 243 237 238 243 245 246 249 255 261 262 266 272 278 282 290 291 291 291 294 299 304
199 195 196 199 198 205 210 210 209 206 210 214 218 218 219 222 222 224 225 225 225 224 226 229 229 231 236 239 242 239 238 241 244 249 250 252 258 263 268 273 275 279 282 290 291 291 291 296 299
198 195 195 198 197 203 208 206 206 205 207 213 216 216 218 221 222 223 224 224 224 224 226 229 232 234 235 238 239 238 239 241 243 248 253 254 258 262 268 273 276 277 279 284 289 293 294 293 295
196 195 196 199 195 202 208 205 207 207 208 209 212 214 217 221 222 223 225 224 226 226 226 231 235 237 240 240 236 238 238 241 245 247 252 256 259 263 267 272 275 276 276 279 284 290 294 294 292
195 193 195 198 195 203 211 206 208 209 210 207 210 214 217 221 223 224 225 225 225 228 229 232 237 239 241 241 240 240 240 241 243 246 250 255 260 263 266 271 274 274 274 276 280 285 290 295 293
193 194 196 201 199 203 211 208 207 210 212 209 209 214 215 219 220 223 223 226 225 227 230 231 235 239 241 244 243 242 243 245 246 248 251 253 259 263 265 269 273 272 271 274 278 282 287 291 295
191 198 201 204 204 206 211 209 208 211 213 212 212 214 214 217 221 223 224 224 224 225 227 231 233 238 240 242 244 245 245 246 248 251 255 256 257 260 265 269 272 272 272 275 277 281 285 288 291
193 196 203 205 208 210 212 214 207 211 215 215 215 214 214 220 223 224 225 227 227 227 227 230 233 235 239 242 242 244 246 248 250 251 253 255 256 261 264 268 270 271 271 274 275 282 281 284 286
192 199 197 210 214 214 217 216 206 213 215 216 216 217 218 217 219 222 226 228 229 230 230 230 233 235 237 241 245 246 248 250 251 252 253 256 258 260 263 265 267 269 271 274 276 277 278 279 282
237 207 215 215 213 217 219 219 212 214 217 216 221 220 220 222 225 226 226 229 233 234 235 236 234 235 237 239 242 246 247 249 251 253 254 255 257 258 261 263 265 268 270 273 275 276 278 279 279
308 255 270 248 244 227 224 221 216 217 220 220 223 221 222 223 221 225 231 233 235 236 237 239 239 239 238 240 242 243 246 247 249 251 253 254 256 258 260 262 265 267 268 269 273 276 279 279 279
51 45 281 256 252 241 242 229 225 220 219 221 223 226 223 223 223 225 230 233 236 239 241 241 242 243 244 244 245 245 245 247 250 252 254 256 258 260 261 263 264 266 269 270 273 275 276 277 278
38 41 38 293 256 245 240 243 234 224 222 223 223 225 226 227 226 228 229 231 234 235 238 241 243 245 247 249 249 250 250 251 251 253 255 257 258 259 262 263 264 266 268 270 271 272 273 276 277